Regional Weather Roundup
Issued by NWS Northern Indiana

Home | Current Version | Previous Version | Graphics & Text | Print | Product List | Glossary On
Versions: 1 2 3 4 5 6 7 8 9 10 11 12 13 14 15 16 17 18 19 20 21 22 23 24 25 26 27 28 29 30 31 32 33 34 35 36 37 38 39 40 41 42 43 44 45 46 47 48 49 50
000
ASUS43 KIWX 201910
RWRIWX

KIWX WEATHER ROUNDUP
NATIONAL WEATHER SERVICE NORTHERN INDIANA
200 PM EST SAT DEC 20 2014

NOTE: "FAIR" INDICATES FEW OR NO CLOUDS BELOW 12,000 FEET WITH NO
SIGNIFICANT WEATHER AND/OR OBSTRUCTIONS TO VISIBILITY.

* THESE STATIONS ARE NOT UNDER NWS QUALITY CONTROL. THEY ALSO MAY NOT
  REPORT WEATHER SUCH AS PRECIPITATION OR FOG.

INZ001>027-202000-
NORTHERN INDIANA

CITY           SKY/WX    TMP DP  RH WIND       PRES   REMARKS
GARY*          CLOUDY    36  21  55 SW7       30.27F
VALPARAISO     CLOUDY    32  24  72 SW7       30.25F WCI  26
MICHIGAN CITY* CLOUDY    32  21  64 SW7       30.26F WCI  26
LAPORTE*       CLOUDY    34  26  73 W8        30.25F WCI  27
KNOX*          CLOUDY    33  23  66 SW6       30.25F WCI  27
SOUTH BEND     CLOUDY    33  24  69 SW7       30.26F WCI  27
ELKHART*       LGT RAIN  30  27  86 CALM      30.26F
GOSHEN         CLOUDY    31  27  85 W5        30.25F FOG     WCI  26
MONTICELLO*    CLOUDY    32  25  74 CALM      30.25F
LOGANSPORT*    CLOUDY    32  27  80 CALM      30.26F
ROCHESTER*     FLURRIES  34  28  80 W3        30.26F
WARSAW*        CLOUDY    32  27  80 W3        30.25F
ANGOLA*        PTSUNNY   30  18  59 W5        30.24S WCI  25
FORT WAYNE     CLOUDY    32  25  75 SW7       30.26F HAZE    WCI  26
HUNTINGTON*    CLOUDY    32  26  77 SW5       30.25F WCI  27
PERU/GRISSOM   CLOUDY    32  32 100 W2        30.25F
MARION*        CLOUDY    31  28  86 CALM      30.26F FOG

$$
INZ028>050-202000-
CENTRAL INDIANA

CITY           SKY/WX    TMP DP  RH WIND       PRES   REMARKS
LAFAYETTE      CLOUDY    31  25  78 CALM      30.27F
KOKOMO*        CLOUDY    34  25  69 W3        30.26F
MUNCIE*        CLOUDY    31  23  72 CALM      30.25F
INDIANAPOLIS   CLOUDY    32  23  69 CALM      30.25F

$$
MIZ043>046-050>051-056>058-064>065-071>073-077>080-202000-
SOUTHWEST LOWER MICHIGAN

CITY           SKY/WX    TMP DP  RH WIND       PRES   REMARKS
BATTLE CREEK   CLOUDY    32  22  66 SW5       30.25F WCI  27
BENTON HARBOR  CLOUDY    32  27  81 SW6       30.25F WCI  26
COLDWATER*     CLOUDY    32  20  62 CALM      30.24F
HILLSDALE*     CLOUDY    29  21  72 CALM      30.23F
HOLLAND        CLOUDY    30  24  78 S7        30.26F WCI  23
GRAND RAPIDS   CLOUDY    32  23  69 CALM      30.25F
KALAMAZOO      CLOUDY    30  23  75 S6        30.26F WCI  24
STURGIS*       CLOUDY    28  25  86 W3        30.25S
THREE RIVERS*  CLOUDY    29  25  84 CALM      30.26F FOG

$$
OHZ001>008-015>018-024>025-202000-
NORTHWEST OHIO

CITY           SKY/WX    TMP DP  RH WIND       PRES   REMARKS
WAUSEON*       CLOUDY    30  19  64 W7        30.25F WCI  23
FINDLAY        CLOUDY    31  22  69 S3        30.24F
TOLEDO EXPRESS CLOUDY    30  21  69 CALM      30.26F
TOLEDO METCALF CLOUDY    32  21  64 S5        30.28S WCI  27
LIMA           CLOUDY    32  23  69 SW3       30.24F HAZE

$$
AND FOR LAKE MICHIGAN COASTAL AND OPEN LAKE BUOY OBSERVATIONS

STATION/POSITION TEMP    WIND        PRES    VSBY  WAVE
                 AIR SEA DIR/SP/G                  HT/PER
                 (F)     (DEG/KT/KT) (MB)    (MI)  (FT/S)
CALUMET HARBOR    33     200/  5/  6 1023.2F
SAINT JOSEPH      34     210/ 11/ 14 1024.7F
MICHIGAN CITY CG     37                N/A    3 1/2  0

$$
&&



USA.gov is the U.S. government's official web portal to all federal, state and local government web resources and services.